30 Oct
2006
30 Oct
'06
9:08 p.m.
ISS 1 25544U 98067A 06304.04280258 .00019307 00000-0 11714-3 0 9630 2 25544 051.6339 207.4189 0012422 155.0964 286.5786 15.77468291454590
6626
Age (days ago)
6626
Last active (days ago)
0 comments
1 participants
participants (1)
-
Dave Larsen PhD